Location: Ariel
(45.9570°N, 122.5700°W)
Time: 04:34:20
(UTC-07:00)

Transit 2A Rocket - Pass Details

Date: 26 July 2019
Orbit: 590 x 913 km, 66.7° (Epoch: 20 August)

Event Time Altitude Azimuth Distance (km) Brightness Sun altitude
Exits shadow 03:11:03 36° 207° (SSW) 1,350 5.7 -19.7°
Maximum altitude 03:13:35 85° 122° (ESE) 870 5.2 -19.5°
Drops below altitude 10° 03:19:12 10° 34° (NE) 2,410 8.8 -19.0°
Sets 03:21:33 0° 34° (NE) 3,297 10.0 -18.8°
